Погода в Тюмени

Погода в Тюмени : погода сейчас, прогноз погоды и архив. Всё, что Вы хотите узнать о погоде в Тюмени!

Хотите узнать прогноз погоды в Тюмени? Тогда Вам сюда: Погода в Тюмени

Поиск расширенной информации на нашем сайте:

Другие новости

Новости СМИ2

Главная страница сайта

Новости сайта

03.07.2017

Напоминаем, что на нашем специализированном сайте Метеоцентр.Азия вы можете получить высокодетализированные автоматические прогнозы погоды по пунктам России, СНГ и мира в авиационном формате (включающие направление и скорость ветра, видимость, явления погоды, количество и форму облачности, нижнюю и верхнюю границу облачности).


Погода в Тюмени - сегодня

Время (UTC), дата Ветер
(°,м/с) 
Видим.   Явления Облачность Т
(°С)
Тd
(°С)
f(%) Тe
(°С)
Pmin
(гПа)
dP
(гПа)
Po
(мм)
O2
(г/м3)
Тmin Tmax R s Состояние
почвы
09 18.05.18 010 (С) 4{11}  4000 м    3/3 600 м 
[Cu med, cong]
+6.2 -6.5 40 +5  1019.5  2.5  755  298           
12 18.05.18 010 (С) 4000 м    ясно 
+7.7 -9.1 29 +7  1021.2  1.7  757  297           
15 18.05.18 010 (С) 4000 м    ясно 
+6.7 -9.8 30 +7  1023  1.8  758  299    +7.8  0.0     
18 18.05.18 070 (В) 10 км    ясно 
+3.9 -9 38 +3  1024.7  1.5  759  302           
21 18.05.18 110 (В) 10 км    ясно 
-1.5 -6.6 68 -1  1026.4  1.5  760  309           
00 19.05.18 180 (Ю) 4000 м    6/0 средняя, верхняя 
[Ac lent|Ci fib]
-1.3 -6.7 67 -2  1027.1  0.7  761  309           
03 19.05.18 190 (Ю) 4000 м    6/0 средняя, верхняя 
[Ac cast|Ci fib]
+4.3 -8 40 +3  1026.8  -0.1  761  303  -2.6        влажная 
06 19.05.18 160 (Ю) 4000 м    9/0 верхняя 
[Ci fib]
+8.8 -9.1 27 +8  1025.4  -1.2  760  297           
09 19.05.18 150 (ЮВ) 5{11}  4000 м    9/0 средняя, верхняя 
[Ac cast|Ci sp]
+11.8 -10.6 20 +11  1023.5  -1.7  758  294           
12 19.05.18 190 (Ю) 4000 м  слаб. ливневой дождь  10/3 600 м кучево-дожд., средняя 
[Cb cap|Ac As]
+9 -2.8 43 +8  1022  -1.5  757  296           
15 19.05.18 130 (ЮВ) 4000 м  {ливн. осадки}  10/5 600 м кучево-дожд., средняя 
[Cb cap|Ac As]
+7.4 +1 64 +7  1019.4  -2.6  755  296    +12.3     
18 19.05.18 140 (ЮВ) 10 км  {ливн. осадки}  9/0 средняя, верхняя 
[Ac As|Ci fib]
+7.1 -1.3 55 +7  1017.6  -1.8  754  296           
21 19.05.18 160 (Ю) 10 км    9/0 средняя 
[Ac As]
+9.3 -2.9 42 +9  1014.4  -3  752  293           
00 20.05.18 190 (Ю) 4000 м    9/0 средняя 
[Ac As]
+10.4 -1.1 45 +10  1012  -2.3  750  291           
03 20.05.18 210 (ЮЗ) 4000 м    9/0 верхняя 
[Ci fib]
+15.3 +5.1 51 +16  1010.7  -1  749  285  +7        влажная 
06 20.05.18 210 (ЮЗ) 4000 м    3/0 верхняя 
[Ci fib]
+22.7 +9 42 +23  1009.2  -1.1  748  277           
18 20.05.18 240 (ЮЗ) 3{10}  10 км    8/4 600 м кучево-дожд., верхняя 
[Cb cap|Ci fib]
+18.1 +8.4 53 +19  1007.7  0.8  747  281           
21 20.05.18 240 (ЮЗ) 10 км    6/0 средняя, верхняя 
[Ac trans|Ci fib]
+15.8 +9.5 66 +17  1008.3  0.5  747  283           
00 21.05.18 250 (З) 4000 м    9/8 600 м средняя 
[Sc|Ac trans]
+14.6 +11.1 80 +18  1009.7  1.3  748  284           
03 21.05.18 310 (СЗ) 4000 м  слаб. ливневой дождь  10/10 600 м кучево-дожд. 
[Cb cap]
+12.6 +9.7 82 +13  1012.7  2.9  750  287  +12.6    0.3     
09 21.05.18 340 (С) 4000 м    9/9 600 м 
[Cu hum]
+13.4 +4.9 56 +13  1017.2  1.4  754  289           
12 21.05.18 330 (СЗ) 4000 м    10/10 900 м 
[Sc diur, vesp]
+12.2 +3.5 55 +12  1018.9  1.6  755  291           
15 21.05.18 350 (С) 4000 м    10/10 870 м 
[Sc diur, vesp]
+11.1 +2.5 55 +11  1019.7  0.8  756  292    +13.6  0.0     
18 21.05.18 350 (С) 50000 м    9/0 средняя 
[Ac trans]
+9.3 +2.9 64 +9  1020.7  0.9  756  294           
21 21.05.18 290 (З) 50000 м    ясно 
+5.1 +2.5 83 +6  1020.5  -0.3  756  299           
Время (UTC), дата Ветер
(°,м/с) 
Видим.   Явления Облачность Т
(°С)
Тd
(°С)
f(%) Тe
(°С)
Pmin
(гПа)
dP
(гПа)
Po
(мм)
O2
(г/м3)
Тmin Tmax R s Состояние
почвы

Для получения пояснительной информации подведите курсор к названию столбца.

ПОГОДА в Тюмени - архив

Всё, что Вы хотите узнать о погоде в Тюмени - удобно и подробно!

Выберите нужную дату (начиная с 1 января 2015* года) и нажмите кнопку "Найти".
Будут отображены архивные сводки погоды по пункту Тюмень, начиная с указанной даты.


Отображать данные в формате CSV (для использования в таблицах Excel)


Внимание! Наш архив погоды предназначен исключительно для личного некоммерческого использования в познавательных целях. Если Вам необходимы официальные справки о состоянии погоды (для производственных, юридических, коммерческих и т.п. целей), обращайтесь в органы Росгидромета.

*Примечание: данная дата относится к архиву по метеостанциям СССР (Россия, СНГ, Балтия).
Архив по метеостанциям Зарубежной Европы и Азии (кроме Китая) хранится 10 дней, по другим регионам земного шара (Китай, Африка, Америка, Австралия, Океания) - 1 день.

Тюмень - район местоположения метеостанции


Название, широта, долгота, высота метеостанции:
Тюмень 57.1°ш. 65.4°д. 102 м над ур. моря [Российская Федерация]

Дополнительная информация

В oтличие oт бoльшинства пoгoдных сайтoв мы публикуем пoдрoбную метеoинфoрмацию в детальнoм прoфессиoнальнoм фoрмате.

Характеристики температуры и влажнoсти вoздуха измеряются на высoте 2 м в тени вдали oт зданий и деревьев.
Скoрoсть ветра измеряется на высoте 10 м (на урoвне рoста челoвека скoрoсть ветра ниже в 1.5-2 раза). Если метеoстанция нахoдится в гoрoде или в лесу, тo скoрoсть ветра занижена на 2-4 м/с пo сравнению с oткрытым местoм. Скoрoсть ветра над акватoриями крупных рек и oзёр, а также на вершинах хoлмoв на 2-5 м/с выше, чем в oбычных услoвиях.
Атмoсфернoе давление в разных тoчках местнoсти мoжет значительнo oтличаться oт давления на метеoстанции, в зависимoсти oт услoвий рельефа (при пoдъёме на 10 м давление пoнижается примернo на 1 мм рт.ст.).